Lihue, HI

12:05 PM HST on February 23, 2017 (GMT -1000)
Lihue

Weather History for PHLI - January, 2015

Change the Weather History Date:

Thursday, January 29, 2015

  Actual Average Record
Temperature  
Mean Temperature 75 °F 72 °F  
Max Temperature 85 °F 78 °F 85 °F (2015)
Min Temperature 65 °F 65 °F 56 °F (1971)
Degree Days  
Heating Degree Days 0 0  
Month to date heating degree days 0 0  
Since 1 July heating degree days 0 0  
Cooling Degree Days 10 7  
Month to date cooling degree days 200 203  
Year to date cooling degree days 200 203  
Growing Degree Days 25 (Base 50)    
Moisture  
Dew Point 63 °F    
Average Humidity 69    
Maximum Humidity 87    
Minimum Humidity 51    
Precipitation  
Precipitation T in 0.11 in 1.60 in (1957)
Month to date precipitation 1.16 3.51  
Year to date precipitation 1.16 3.51  
Snow  
Snow 0.00 in - - ()
Month to date snowfall 0.0  
Since 1 July snowfall 0.0  
Snow Depth 0.00 in    
Sea Level Pressure  
Sea Level Pressure 29.89 in    
Wind  
Wind Speed 7 mph (WSW)    
Max Wind Speed 18 mph    
Max Gust Speed 23 mph    
Visibility 10 miles    
Events      
T = Trace of Precipitation, MM = Missing Value Source: NWS Daily Summary

Daily Weather History Graph

Daily Weather History Graph

Search for Another Location

Airport or City:

Trip Planner

Search our weather history database for the weather conditions in past years. The results will help you decide how hot, cold, wet, or windy it might be!

Date:

Astronomy

Jan. 29, 2015 Rise Set
Actual Time 7:16 AM HST 6:24 PM HST
Civil Twilight 6:53 AM HST 6:48 PM HST
Nautical Twilight 6:26 AM HST 7:14 PM HST
Astronomical Twilight 5:59 AM HST 7:41 PM HST
Moon 2:24 PM HST (1/29) 2:58 AM HST (1/29)
Length of Visible Light 11h 54m
Length of Day
11h 08m
Waxing Gibbous, 77% of the Moon is Illuminated
Jan 29
Waxing Gibbous
Feb 3
Full
Feb 11
Last Quarter
Feb 18
New
Feb 25
First Quarter

Hourly Weather History & Observations

Time (HST) Temp. Heat Index Dew Point Humidity Pressure Visibility Wind Dir Wind Speed Gust Speed Precip Events Conditions
12:53 AM 68.0 °F - 63.0 °F 84% 29.93 in 10.0 mi West 8.1 mph - N/A   Overcast
1:53 AM 68.0 °F - 62.6 °F 83% 29.91 in 10.0 mi WSW 5.8 mph - N/A   Overcast
2:53 AM 68.0 °F - 62.1 °F 81% 29.90 in 10.0 mi West 6.9 mph - N/A   Overcast
3:53 AM 66.0 °F - 61.0 °F 84% 29.88 in 10.0 mi WSW 4.6 mph - N/A   Scattered Clouds
4:26 AM 66.2 °F - 60.8 °F 83% 29.89 in 10.0 mi West 6.9 mph - N/A   Partly Cloudy
4:53 AM 66.9 °F - 61.0 °F 81% 29.89 in 10.0 mi WNW 6.9 mph - N/A   Mostly Cloudy
5:53 AM 68.0 °F - 62.1 °F 81% 29.91 in 10.0 mi West 3.5 mph - N/A   Overcast
6:53 AM 66.9 °F - 61.0 °F 81% 29.93 in 10.0 mi West 9.2 mph - 0.00 in   Overcast
7:53 AM 66.9 °F - 62.1 °F 84% 29.93 in 10.0 mi South 3.5 mph - 0.00 in   Partly Cloudy
8:53 AM 71.1 °F - 64.0 °F 78% 29.94 in 10.0 mi West 3.5 mph - N/A   Clear
9:53 AM 75.0 °F - 64.0 °F 69% 29.95 in 10.0 mi East 4.6 mph - N/A   Clear
10:53 AM 78.1 °F - 64.0 °F 62% 29.94 in 10.0 mi SE 10.4 mph - N/A   Clear
11:53 AM 81.0 °F 82.5 °F 64.0 °F 56% 29.91 in 10.0 mi South 10.4 mph - N/A   Partly Cloudy
12:53 PM 81.0 °F 81.9 °F 62.1 °F 52% 29.87 in 10.0 mi SSW 8.1 mph - N/A   Mostly Cloudy
1:53 PM 80.1 °F 81.5 °F 63.0 °F 56% 29.84 in 10.0 mi South 13.8 mph - N/A   Scattered Clouds
2:53 PM 82.0 °F 83.0 °F 62.1 °F 51% 29.82 in 10.0 mi WSW 17.3 mph - N/A   Mostly Cloudy
3:53 PM 77.0 °F - 64.9 °F 66% 29.82 in 10.0 mi NE 13.8 mph - N/A   Scattered Clouds
4:08 PM 77.0 °F - 66.2 °F 69% 29.82 in 10.0 mi NNE 12.7 mph - N/A   Clear
4:53 PM 79.0 °F - 62.1 °F 56% 29.82 in 10.0 mi WSW 11.5 mph 16.1 mph N/A   Clear
5:11 PM 78.8 °F - 60.8 °F 54% 29.83 in 10.0 mi SW 13.8 mph - N/A   Clear
5:53 PM 75.9 °F - 60.1 °F 58% 29.83 in 10.0 mi SW 9.2 mph - N/A   Clear
6:53 PM 72.0 °F - 63.0 °F 73% 29.86 in 10.0 mi Calm Calm - N/A   Partly Cloudy
7:53 PM 71.1 °F - 64.0 °F 78% 29.89 in 10.0 mi NNE 5.8 mph - N/A   Mostly Cloudy
8:53 PM 71.1 °F - 64.0 °F 78% 29.91 in 10.0 mi Calm Calm - N/A   Overcast
9:53 PM 72.0 °F - 62.1 °F 71% 29.91 in 10.0 mi South 3.5 mph - N/A   Partly Cloudy
10:53 PM 69.1 °F - 60.1 °F 73% 29.92 in 10.0 mi SW 3.5 mph - N/A   Mostly Cloudy
11:53 PM 66.9 °F - 62.1 °F 84% 29.92 in 10.0 mi West 4.6 mph - N/A   Mostly Cloudy